Change the Weather History Date:

Monday, April 29, 2013

  Actual Average Record
Temperature  
Mean Temperature 72 °F -  
Max Temperature 83 °F 70 °F 83 °F (2013)
Min Temperature 60 °F 52 °F 50 °F (2005)
Cooling Degree Days 6    
Growing Degree Days 22 (Base 50)    
Moisture  
Dew Point 46 °F    
Average Humidity 38    
Maximum Humidity 77    
Minimum Humidity 11    
Precipitation  
Precipitation 0.00 in 0.05 in - ()
Sea Level Pressure  
Sea Level Pressure 29.98 in    
Wind  
Wind Speed 10 mph ()    
Max Wind Speed 18 mph    
Max Gust Speed -    
Visibility 10.9 miles    
Events      
Averages and records for this station are not official NWS values.
T = Trace of Precipitation, MM = Missing Value Source: Averaged Metar Reports

Daily Weather History Graph

Daily Weather History Graph

Search for Another Location

Airport or City:

Trip Planner

Search our weather history database for the weather conditions in past years. The results will help you decide how hot, cold, wet, or windy it might be!

Date:

Astronomy

Apr. 29, 2013 Rise Set
Actual Time 6:09 AM CEST 8:06 PM CEST
Civil Twilight 5:39 AM CEST 8:36 PM CEST
Nautical Twilight 5:03 AM CEST 9:13 PM CEST
Astronomical Twilight 4:23 AM CEST 9:53 PM CEST
Moon No Moon Rise 9:10 AM CEST (4/29)
Length of Visible Light 14h 56m
Length of Day
13h 56m
Waning Gibbous, 82% of the Moon is Illuminated
Apr 29
Waning Gibbous
May 2
Last Quarter
May 10
New
May 18
First Quarter
May 25
Full

Hourly Weather History & Observations

Time (CEST) Temp. Dew Point Humidity Pressure Visibility Wind Dir Wind Speed Gust Speed Precip Events Conditions
12:55 AM 64.4 °F 53.6 °F 68% 29.98 in - ESE 8.1 mph - N/A   Clear
1:55 AM 64.4 °F 53.6 °F 68% 29.98 in - East 9.2 mph - N/A   Clear
2:00 AM 64 °F 54 °F 62% 29.98 in 7 mi East 9.2 mph - -   Clear
2:55 AM 62.6 °F 55.4 °F 77% 29.98 in - ESE 8.1 mph - N/A   Clear
4:55 AM 68.0 °F 46.4 °F 46% 29.98 in - East 9.2 mph - N/A   Clear
5:00 AM 68 °F 46 °F 34% 29.98 in 7 mi East 9.2 mph - -  
5:55 AM 68.0 °F 46.4 °F 46% 29.95 in - East 10.4 mph - N/A   Clear
6:55 AM 68.0 °F 55.4 °F 64% 29.98 in - ESE 9.2 mph - N/A   Clear
8:00 AM 68 °F 54 °F 51% 29.98 in 7 mi ESE 10.4 mph - -  
8:55 AM 73.4 °F 51.8 °F 47% 29.98 in - SE 13.8 mph - N/A   Clear
9:55 AM 73.4 °F 53.6 °F 50% 30.01 in - ESE 9.2 mph - N/A   Clear
10:55 AM 77.0 °F 51.8 °F 41% 30.01 in - ESE 12.7 mph - N/A   Clear
11:00 AM 77 °F 51 °F 30% 30.01 in 16 mi ESE 12.7 mph - -   Clear
11:55 AM 82.4 °F 50.0 °F 32% 30.01 in - SE 15.0 mph - N/A   Clear
12:55 PM 82.4 °F 50.0 °F 32% 29.98 in - SE 17.3 mph - N/A   Clear
1:55 PM 82.4 °F 37.4 °F 20% 29.98 in - SSE 18.4 mph - N/A   Clear
2:00 PM 83 °F 38 °F 11% 29.99 in 16 mi SSE 18.4 mph - -   Clear
2:55 PM 80.6 °F 42.8 °F 26% 29.98 in - SSE 17.3 mph - N/A   Clear
3:55 PM 78.8 °F 44.6 °F 30% 29.98 in - SSE 17.3 mph - N/A   Clear
4:55 PM 78.8 °F 42.8 °F 28% 29.98 in - SSE 17.3 mph - N/A   Clear
5:00 PM 79 °F 43 °F 18% 29.98 in 16 mi SSE 17.3 mph - -  
5:55 PM 77.0 °F 41.0 °F 28% 29.98 in - SE 15.0 mph - N/A   Clear
6:55 PM 75.2 °F 41.0 °F 29% 29.95 in - SE 12.7 mph - N/A   Clear
8:00 PM 72 °F 39 °F 19% 29.97 in 9 mi SE 11.5 mph - -   Clear
8:55 PM 73.4 °F 37.4 °F 27% 29.95 in - ESE 15.0 mph - N/A   Clear
9:55 PM 71.6 °F 39.2 °F 31% 29.95 in - East 8.1 mph - N/A   Clear
10:55 PM 71.6 °F 41.0 °F 33% 29.95 in - ESE 10.4 mph - N/A   Clear
11:00 PM 72 °F 40 °F 21% 29.97 in 9 mi ESE 10.4 mph - -   Clear
11:55 PM 71.6 °F 39.2 °F 31% 29.98 in - ESE 9.2 mph - N/A   Clear